www.pogodaiklimat.ru

Погода и климат >> Архив погоды >> Россия >> Волгоградская область >> Эльтон


АРХИВ ПОГОДЫ в Эльтоне

Время (UTC), дата Ветер
(напр.,м/с)
 
Видим.   Явления Облачность Т
(С)
Тd
(С)
f
(%)
Тe
(С)
Тes
(С)
Комфортность P
(гПа)
Po
(гПа)
Тmin
(С)
Tmax
(С)
R
(мм)
R24
(мм)
S
(см)
12 18.05 СЗ 1 20 км 3/0
[Ci fib]
+22.2 +1.8 26 +22 +33 комфорт 1014.9 1014.2
15 18.05 СЗ 2 20 км ясно +21.7 +3.3 30 +22 +23 комфорт 1013.6 1012.9 +22.6
18 18.05 ЮВ 2 20 км ясно +16.2 +4.9 47 +16 +16 1013.3 1012.6
21 18.05 С 1 20 км ясно +13.9 +4.4 53 +14 +14 1013.0 1012.3
00 19.05 штиль 0 20 км ясно +10.1 +4.2 67 +10 +10 1012.5 1011.8
03 19.05 СЗ 2 20 км ясно +14.7 +6.4 57 +15 +16 1012.2 1011.5 +9.3
06 19.05 З 4 20 км ясно +21.4 +5.1 34 +22 +29 комфорт 1012.4 1011.7
09 19.05 СЗ 5
{10}
20 км 4/4 1000 м
[Cu hum]
+23.8 +3.0 26 +23 +29 комфорт 1011.7 1011.0
12 19.05 СЗ 5
{11}
20 км 4/4 1000 м
[Cu hum]
+24.6 +2.8 24 +24 +27 комфорт 1011.3 1010.6
15 19.05 С 6
{11}
20 км ясно +22.8 +1.4 24 +22 +23 комфорт 1011.5 1010.8 +24.7
18 19.05 С 2 20 км 3/0
[Ac trans]
+16.7 +1.2 35 +17 +17 1012.4 1011.7
21 19.05 С 5 20 км ясно +14.2 +1.8 43 +13 +13 1013.6 1012.9
00 20.05 СВ 3 20 км ясно +9.7 +1.2 55 +8 +8 1015.8 1015.0
03 20.05 СВ 4 20 км ясно +9.5 +0.3 53 +7 +8 1018.0 1017.3 +7.9
06 20.05 С 4 20 км ясно +15.0 -2.0 31 +14 +22 1019.2 1018.5
09 20.05 СЗ 6
{11}
20 км 1/1 1000 м
[Cu hum]
+17.0 -2.7 26 +16 +22 1019.5 1018.8
12 20.05 СЗ 7-10
{16}
20 км 1/1 1000 м
[Cu hum]
+18.7 -1.3 26 +18 +21 1019.1 1018.4
15 20.05 С 4
{12}
20 км 3/0
[Ci fib]
+17.4 -0.9 29 +17 +18 1018.9 1018.2 +18.8
18 20.05 СВ 3 20 км 3/0
[Ci fib]
+13.0 -1.2 37 +12 +12 1020.1 1019.4
21 20.05 В 2 20 км 4/0
[Ci]
+9.5 -0.9 48 +8 +8 1021.2 1020.4
00 21.05 СВ 1 20 км 3/0
[Ci fib]
+7.3 -0.8 56 +7 +7 1021.3 1020.6
03 21.05 СЗ 2 20 км 3/0
[Ci fib]
+10.8 +0.6 49 +10 +12 1022.8 1022.1 +6.0
06 21.05 З 2 20 км 1/0
[Ci fib]
+17.4 -2.0 27 +18 +29 1023.5 1022.8
09 21.05 ЮЗ 2 20 км 4/4 1000 м
[Cu hum]
+18.9 -2.9 23 +19 +30 1023.5 1022.8
12 21.05 СЗ 2 20 км 5/3 1000 м
[Cu hum Ci]
+20.2 -2.4 22 +21 +28 комфорт 1022.6 1021.9
15 21.05 С 1 20 км 4/0
[Ci]
+20.9 -1.6 22 +22 +23 комфорт 1021.6 1020.9 +21.3
18 21.05 В 2 20 км 8/0
[Ci]
+14.7 +0.8 39 +15 +15 1022.0 1021.3
21 21.05 ЮВ 3 20 км 3/0
[Ci fib]
+12.0 +0.2 44 +11 +11 1021.9 1021.2
00 22.05 Ю 5 20 км 3/0
[Ci fib]
+10.8 -1.4 43 +8 +8 1021.3 1020.5
03 22.05 Ю 3 20 км 8/0
[Ci]
+13.2 +2.4 48 +12 +14 1021.5 1020.8 +9.4
06 22.05 ЮЗ 4 20 км 9/0
[Ci]
+20.6 +1.1 27 +21 +27 комфорт 1020.9 1020.2
09 22.05 Ю 4
{10}
20 км 9/0
[Ci]
+23.1 -0.7 21 +22 +32 комфорт 1019.3 1018.6
12 22.05 Ю 4
{10}
20 км 9/0
[Ac trans Ci]
+24.1 -1.3 19 +23 +28 комфорт 1017.4 1016.7
15 22.05 Ю 3 20 км 9/0
[Ac trans Ci]
+22.7 -1.4 20 +22 +22 комфорт 1016.2 1015.5 +24.3
18 22.05 ЮВ 4 20 км 9/0
[Ac trans Ci]
+15.6 +1.5 38 +15 +15 1016.2 1015.5
21 22.05 ЮВ 4 20 км 9/0
[Ac trans Ci]
+13.7 +4.0 52 +12 +12 1015.4 1014.7
00 23.05 В 3 20 км 8/0
[Ac trans Ci]
+11.5 +3.8 59 +10 +10 1014.6 1013.9
03 23.05 ЮВ 5 20 км 9/0
[Ac trans Ci]
+13.4 +6.0 61 +12 +12 1013.3 1012.6 +10.2
06 23.05 Ю 7-10
{12}
20 км 9/0
[Ac trans Ci]
+19.3 +8.3 49 +20 +22 1012.2 1011.5
09 23.05 Ю 5
{11}
20 км 10/6 600 м
[Cb cap Ac trans]
+20.5 +8.2 45 +22 +23 комфорт 1010.9 1010.2
12 23.05 ЮВ 5
{10}
20 км 9/3 600 м
[Cb cap Ac trans Ci]
+22.5 +7.8 39 +24 +26 комфорт 1008.4 1007.7
15 23.05 Ю 6-11
{11}
20 км гроза без осадков 10/6 600 м
[Cb cap Ac trans]
+21.1 +9.5 47 +22 +23 комфорт 1007.1 1006.4 +23.3
18 23.05 Ю 5
{14}
20 км в посл. час ливневой дождь {гроза} 10/5 600 м
[Cb cap Ac trans]
+15.2 +13.1 87 +14 +14 1007.7 1007.0
21 23.05 ЮЗ 3 4000 м дымка 4/0
[Ac trans]
+13.5 +11.7 89 +12 +12 1007.3 1006.6
00 24.05 ЮЗ 2 4000 м дымка 4/0
[Ci]
+12.4 +10.8 90 +11 +11 1006.4 1005.7
03 24.05 ЮЗ 3 4000 м дымка 9/0
[Ac trans Ci]
+14.1 +12.3 89 +13 +14 1006.4 1005.7 +11.6 5
06 24.05 Ю 3 10 км 3/0
[Ci fib]
+19.4 +13.5 69 +21 +30 комфорт 1006.5 1005.8
09 24.05 З 5 20 км 4/4 600 м
[Cb cap]
+23.3 +12.8 52 +26 +32 жарко 1006.2 1005.5
12 24.05 СЗ 6 20 км 6/5 1000 м
[Cu hum Ci]
+25.7 +10.1 37 +26 +28 жарко 1006.5 1005.8
15 24.05 СЗ 4 20 км 5/1 600 м
[Sc Ac trans Ci]
+23.8 +10.9 44 +25 +26 комфорт 1007.8 1007.1 +26.0
18 24.05 СВ 6-11
{11}
20 км 8/3 600 м
[Cb cap Ac trans]
+20.1 +13.6 66 +22 +22 комфорт 1010.1 1009.4
21 24.05 СВ 7-11
{12}
20 км 4/0
[Ac trans Ci]
+15.2 +9.7 70 +13 +13 1012.1 1011.3
00 25.05 СВ 8-12
{12}
20 км 6/0
[Ac trans Ci]
+11.1 +3.9 61 +8 +8 1013.9 1013.2
03 25.05 В 7-13
{13}
20 км 3/0
[Ac trans Ci fib]
+11.6 +4.2 60 +9 +9 1015.0 1014.3 +10.8
06 25.05 В 8-12
{13}
20 км 8/0
[Ac trans Ci]
+15.3 +2.5 42 +14 +15 1015.9 1015.2

 

Местоположение метеостанции Эльтон (Волгоградская область, Россия): широта 49.13 долгота 46.85 высота над уровнем моря 6 м.

В архиве по умолчанию представлена погода в Эльтоне за последнюю неделю. Архивные данные за месяц целиком и за предыдущие месяцы, начиная с января 2011 года, Вы можете получить, выбрав интересующий диапазон дат из раскрывающегося списка и нажав кнопку "Ввод!".


*Определитесь, кто Вы:
робот инопланетянин человек

Внимание! Время в таблицах - всемирное. Для получения местного времени необходимо прибавить поправку, которая равна 3 ч.

Смотрите также архив погоды в соседних городах и на ближайших метеорологических станциях:

Погода в Жанибеке (Западно-Казахстанская область, Казахстан) (30 км)
Погода в Жанаказане (Западно-Казахстанская область, Казахстан) (43 км)
Погода в Урде (Западно-Казахстанская область, Казахстан) (58 км)
Погода в Верхнем Баскунчаке (Астраханская область, Россия) (102 км)
Погода в Палласовке (Волгоградская область, Россия) (102 км)
Погода в Черный Яр (Астраханская область, Россия) (130 км)
Погода в Казталовке (Западно-Казахстанская область, Казахстан) (149 км)
Погода в Камышине (Волгоградская область, Россия) (149 км)
Погода в Александровом Гае (Саратовская область, Россия) (167 км)
Погода в Новоузенске (Саратовская область, Россия) (171 км)

Пояснения к столбцам:

Ветер - указаны скорость ветра в м/с - средняя за 10 мин, порывы в срок и между сроками (в фигурных скобках) и направление, откуда дует ветер: С - северный, СВ - северо-восточный, В - восточный, ЮВ - юго-восточный, Ю - южный, ЮЗ - юго-западный, З - западный, СЗ - северо-западный.
Видимость - горизонтальная дальность видимости в метрах или километрах. При видимости от 1 до 10 км при отсутствии осадков обычно наблюдается дымка, при ухудшении видимости до 1 км и менее - туман. В сухую погоду видимость может ухудшаться дымом, пылью или мглою.
Явления - указаны атмосферные явления, наблюдавшиеся в срок или в последний час перед сроком; фигурными скобками обозначены явления, наблюдавшиеся между сроками (за 1-3 часа до срока); квадратными скобками обозначены град или гололедные отложения с указанием их диаметра в мм.
Облачность - указаны через наклонную черту общая и нижняя облачность в баллах и высота нижней границы облаков в метрах; квадратными скобками обозначены формы облаков: Ci - перистые, Cs - перисто-слоистые, Cc - перисто-кучевые, Ac - высококучевые, As - высокослоистые, Sc - слоисто-кучевые, Ns - слоисто-дождевые, Cu - кучевые, Cb - кучево-дождевые. Подробнее классификацию облаков см. в Атласе облаков (PDF).
T - Температура воздуха - температура, измеренная на высоте 2 м над землей.
Td - Температура точки росы - температура, при понижении до которой содержащийся в воздухе водяной пар достигнет насыщения.
f - Относительная влажность воздуха - влажноcть воздуха, измеренная на высоте 2 м над землей.
Te - Эффективная температура - температура, которую ощущает одетый по сезону человек в тени. Характеристика душности погоды. При расчете учитывается влияние влажности воздуха и скорости ветра на теплоощущения человека.
Tes - Эффективная температура на солнце - температура, которую ощущает человек, с поправкой на солнечный нагрев. Характеристика знойности погоды. Зависит от высоты солнца над горизонтом, облачности и скорости ветра. Ночью, в пасмурную погоду, а также при ветре 12 м/с и более поправка равна нулю.
P - Атмосферное давление - приведенное к уровню моря атмосферное давление.
Po - Атмосферное давление - измеренное на уровне метеостанции атмосферное давление.
Tmin - Минимальная температура - минимум температуры воздуха на высоте 2 м над землей.
Tmax - Максимальная температура - максимум температуры воздуха на высоте 2 м над землей.
R - Количество осадков - Количество выпавших осадков за период времени, мм. При наведении курсора мыши на число - период времени, за который выпало указанное количество осадков.
R24 - Количество осадков - Количество выпавших осадков за 24 часа, мм.
S - Снежный покров - Высота снежного покрова, см. При наведении курсора мыши на число - состояние снежного покрова и степень покрытия местности в баллах.